Wind_Speed
35 36 38 39 40 42 43 43 43 43 43 41 40 40 40 39 39 39 39 39 39 39 39 39 39 40 40 41 41 42 43 43 44 45 46 47 47 48 48 49 49 50 51 51
34 33 34 37 39 40 41 42 42 41 41 40 39 39 39 39 39 39 39 39 39 39 39 39 39 40 40 41 42 42 43 44 45 45 46 47 47 48 48 49 49 50 51 51
33 33 33 35 37 38 39 39 40 40 39 39 39 39 40 39 39 38 37 38 38 39 39 40 40 40 40 41 42 43 44 45 45 46 46 47 47 48 49 49 50 51 52 52
29 31 33 33 34 35 36 37 38 39 38 39 39 39 39 39 38 38 38 37 37 38 40 40 41 41 42 42 43 44 44 45 46 46 46 47 47 48 49 50 51 51 51 52
30 31 32 32 32 33 34 35 36 38 39 40 40 40 40 40 40 40 39 39 38 39 39 40 41 42 43 43 44 44 45 45 45 46 46 46 47 48 49 50 50 50 51 51
32 32 32 31 31 32 33 34 35 36 38 39 40 40 39 40 40 40 40 40 40 40 41 41 41 42 43 44 44 45 45 45 45 45 45 46 46 47 48 49 49 49 49 49
31 32 32 31 31 31 33 33 33 34 36 37 39 39 38 39 39 40 41 41 41 41 41 42 42 43 43 43 44 44 44 45 45 45 46 46 47 47 48 48 47 47 47 47
31 31 31 30 31 31 31 31 32 33 33 34 36 37 38 38 39 39 40 41 41 42 42 42 43 43 43 43 43 43 44 44 45 46 46 46 46 46 46 46 46 46 45 44
29 29 29 30 31 31 31 31 31 32 32 34 35 36 37 38 39 39 39 40 40 40 41 41 41 41 41 42 42 43 43 44 44 45 45 45 45 45 45 45 45 45 44 43
28 28 29 29 30 30 30 31 31 31 32 33 34 34 35 36 38 39 40 40 40 40 40 40 41 42 42 42 42 42 42 43 43 43 43 43 44 44 45 45 44 43 42 41
25 27 28 30 30 29 30 30 31 32 32 32 33 33 34 35 36 37 38 39 39 40 41 41 41 41 41 42 42 42 42 42 42 42 41 42 43 43 43 43 43 42 41 40
23 24 26 27 28 29 29 30 30 31 32 32 33 33 33 34 35 36 36 37 38 38 39 40 40 40 41 41 41 41 41 41 41 41 41 41 42 42 42 42 42 41 39 39
22 23 24 25 26 26 27 27 28 29 29 29 30 31 32 33 33 34 34 35 35 36 37 39 39 39 40 40 40 40 40 39 39 39 40 41 41 41 41 41 40 39 38 38
21 21 22 23 24 24 25 26 27 28 29 29 29 30 31 32 32 33 33 34 35 36 36 37 37 38 38 38 39 39 39 39 40 40 40 41 41 40 39 38 37 37 37 36
20 21 21 22 23 24 25 25 26 27 28 28 29 30 31 32 32 33 33 33 34 35 36 36 36 37 37 38 38 39 39 40 40 40 40 40 39 38 37 36 35 35 35 35
20 21 21 22 23 24 25 25 25 25 26 27 28 29 30 31 31 31 32 33 33 34 34 35 35 36 36 37 37 38 39 39 39 39 38 38 37 36 35 35 34 34 34 33
19 20 21 21 22 23 24 24 25 26 26 27 28 28 29 29 29 30 30 31 32 32 32 32 32 33 34 34 35 35 35 36 36 36 36 35 34 34 33 33 33 33 32 30
17 18 19 20 21 22 23 23 24 25 26 26 27 27 28 28 29 29 30 30 30 30 30 31 31 31 32 32 32 32 32 32 32 32 31 31 31 30 30 30 30 29 28 27
15 16 17 18 19 20 20 21 22 23 24 25 25 25 26 27 27 27 28 28 28 29 29 30 31 31 31 31 32 31 31 30 30 29 29 28 28 27 27 26 26 24 23 22
15 15 16 17 18 19 19 20 21 21 22 22 23 23 24 24 25 25 25 26 27 27 28 29 30 30 30 30 30 29 28 27 27 26 25 25 24 23 22 21 20 19 19 18
15 16 16 17 18 19 19 19 19 20 20 20 21 21 21 22 22 22 22 23 23 24 25 25 26 26 26 26 25 24 23 23 22 21 20 20 19 19 18 17 16 16 15 14
15 15 16 17 17 18 18 18 18 18 18 18 18 18 18 19 19 19 19 20 20 21 21 21 21 22 22 22 21 21 20 19 19 18 17 17 16 16 15 15 14 13 12 11
14 14 14 15 15 15 15 15 15 15 15 16 16 16 16 17 17 17 17 18 18 19 19 19 19 19 18 18 18 18 18 18 17 17 16 15 15 14 13 13 12 11 11 10
13 13 13 13 13 13 13 13 13 13 13 14 14 14 14 15 15 16 16 16 17 17 17 17 16 16 15 14 14 14 14 14 14 14 13 13 13 12 11 11 10 10 10 9
11 11 11 12 12 12 12 12 12 12 12 13 13 13 13 14 14 14 14 15 15 14 14 14 13 12 12 11 11 11 11 10 11 11 11 10 10 10 9 9 9 9 9 9
9 9 10 10 11 11 11 12 12 12 13 13 13 13 13 12 12 12 12 12 11 11 11 10 10 9 9 9 8 8 8 8 8 8 8 8 8 7 7 8 9 9 9 9
9 9 9 9 10 10 11 11 12 13 13 13 12 12 12 12 11 11 11 10 9 9 8 8 7 7 6 6 5 6 6 5 5 5 6 6 6 6 7 8 9 9 10 10
Wind_Direction
229 230 230 231 231 232 233 234 236 237 238 240 242 242 243 244 245 246 247 248 249 251 251 253 254 256 257 259 261 264 266 268 271 272 273 275 276 278 280 282 284 286 287 288
228 229 231 231 230 231 233 233 235 236 237 238 239 240 241 242 244 246 247 248 250 251 252 254 255 257 257 259 261 264 266 269 271 272 273 275 276 278 280 282 284 286 287 288
230 229 231 231 229 231 232 233 234 236 237 237 237 238 240 242 244 245 247 248 250 252 253 254 255 257 258 260 263 265 268 270 271 272 274 275 276 278 280 282 284 285 287 288
228 230 234 232 231 232 234 234 234 235 236 237 237 238 240 241 243 244 246 247 249 250 252 254 256 258 260 262 265 267 269 271 271 272 274 275 276 278 280 282 284 285 286 288
227 228 232 232 230 232 234 235 235 236 236 237 237 238 239 242 243 245 245 247 249 250 252 255 257 259 261 263 266 268 270 271 271 272 273 275 276 278 280 282 283 284 286 287
228 231 234 233 233 234 235 236 236 237 239 240 240 241 243 244 245 246 247 249 250 252 254 256 258 261 263 265 267 268 270 270 270 271 273 276 277 278 280 282 283 285 286 287
230 232 234 235 235 236 237 238 238 239 240 241 242 243 245 246 248 249 250 251 252 254 257 259 260 262 264 266 267 268 269 269 270 272 274 276 277 278 280 282 283 285 286 287
232 234 234 234 236 237 239 238 240 241 242 243 243 244 245 247 249 250 252 253 255 257 258 260 262 263 265 266 267 268 269 270 271 273 275 276 277 279 280 282 284 285 286 286
232 234 235 236 238 239 239 240 241 242 242 243 244 245 246 248 250 251 253 255 256 258 259 262 263 264 266 267 268 270 270 271 272 274 275 276 277 278 280 283 284 285 285 285
232 233 233 234 236 238 240 241 242 243 244 245 246 248 248 249 250 252 254 256 257 259 261 263 264 265 266 268 270 271 271 272 273 274 275 276 277 279 281 282 283 285 285 284
233 233 233 234 236 238 240 241 242 242 244 246 247 248 250 250 250 251 253 256 258 259 261 262 264 265 267 268 269 270 271 272 274 275 275 276 278 280 281 282 283 283 283 283
233 233 233 234 236 237 240 242 243 243 245 246 247 248 250 251 252 253 254 257 258 260 261 262 263 265 267 268 270 270 271 273 274 275 276 278 279 280 282 282 282 282 282 282
236 236 234 234 235 237 239 241 243 244 245 247 248 250 251 252 253 255 257 259 260 262 263 263 264 265 266 268 269 270 270 272 273 275 276 278 280 281 282 282 281 280 280 281
238 238 236 236 237 238 240 243 245 246 248 250 251 252 254 255 256 257 259 260 262 264 264 265 265 266 267 268 268 269 270 271 273 275 276 278 280 281 282 280 278 279 281 282
242 241 239 239 238 240 243 245 246 247 249 250 253 255 257 258 259 259 260 262 264 265 265 266 267 268 268 269 269 269 270 272 274 275 276 278 280 280 280 278 278 278 280 281
245 244 243 243 244 245 245 245 246 249 251 253 255 256 258 260 260 261 262 263 265 266 267 267 267 268 269 270 270 270 271 272 274 275 276 277 278 278 278 277 277 278 279 280
244 244 245 246 247 248 247 248 250 253 255 256 257 257 259 261 262 263 264 265 266 267 268 269 270 271 271 271 271 272 273 274 275 275 275 276 277 277 277 277 277 278 278 279
246 247 247 246 247 249 249 252 254 256 257 258 259 260 261 262 263 264 265 266 267 268 269 270 272 272 273 273 273 274 274 275 275 275 275 275 276 275 276 276 276 277 277 277
249 250 249 249 250 251 252 254 255 257 259 260 261 263 264 265 266 266 265 266 267 269 270 272 273 274 274 274 274 274 274 274 273 273 274 274 275 275 276 276 275 275 275 275
253 253 253 253 254 256 257 257 258 260 262 263 263 264 265 265 266 267 268 269 270 271 272 272 273 275 275 274 273 273 274 273 273 273 272 272 272 272 274 274 272 270 270 269
258 256 257 258 258 260 260 259 260 262 263 264 265 265 264 265 266 268 270 270 271 273 274 275 276 276 276 275 273 273 273 272 271 271 270 270 270 272 273 272 268 265 264 263
262 260 260 261 261 261 260 260 261 262 263 265 266 265 265 265 267 269 270 271 273 276 278 278 278 279 278 274 271 270 270 269 268 267 266 266 268 270 270 268 262 258 257 254
263 260 260 260 259 258 259 261 262 262 263 266 266 266 266 267 268 269 271 274 275 277 279 279 279 280 279 275 271 270 270 267 265 263 262 263 264 265 264 258 252 249 246 240
262 261 259 259 258 257 257 259 260 260 263 266 268 267 268 269 271 272 273 274 276 277 279 280 281 281 280 276 274 273 269 264 260 258 257 258 259 258 255 248 241 235 230 222
263 262 260 258 255 255 256 257 259 262 265 268 270 270 271 272 273 274 275 275 277 277 277 279 281 282 281 277 275 273 266 259 254 252 251 251 250 249 245 236 223 212 203 198
263 262 260 257 254 254 256 259 264 268 270 271 271 272 273 273 273 275 276 276 275 275 276 278 279 280 279 276 270 262 256 253 251 248 244 239 235 230 222 211 200 196 194 191
261 261 258 256 256 259 261 264 268 272 274 272 271 272 272 271 271 272 272 271 270 272 274 277 278 278 277 269 257 248 246 249 245 240 228 216 206 198 193 189 186 184 182 179
Height
5550 5554 5559 5565 5570 5574 5579 5584 5589 5594 5598 5603 5607 5611 5615 5618 5622 5626 5629 5632 5635 5638 5640 5642 5644 5646 5647 5648 5649 5649 5649 5649 5648 5647 5646 5644 5643 5641 5639 5636 5633 5630 5627 5623
5542 5546 5550 5555 5560 5565 5570 5574 5579 5584 5589 5593 5597 5600 5604 5608 5612 5615 5619 5622 5625 5627 5630 5631 5633 5635 5636 5637 5637 5637 5637 5637 5636 5635 5634 5632 5631 5629 5626 5624 5621 5618 5614 5611
5534 5539 5542 5547 5552 5556 5561 5566 5571 5575 5581 5584 5588 5591 5594 5598 5602 5605 5609 5612 5615 5617 5619 5621 5622 5623 5624 5625 5625 5626 5625 5625 5624 5623 5622 5620 5618 5616 5614 5611 5608 5605 5602 5598
5527 5531 5535 5542 5544 5549 5553 5558 5562 5566 5570 5574 5578 5581 5584 5588 5592 5595 5598 5601 5604 5606 5608 5610 5611 5612 5613 5613 5614 5614 5613 5613 5612 5611 5609 5608 5606 5604 5601 5599 5596 5592 5589 5585
5520 5523 5527 5533 5537 5541 5545 5549 5553 5557 5561 5564 5568 5571 5575 5579 5582 5585 5588 5590 5593 5595 5596 5598 5599 5601 5601 5602 5602 5602 5601 5600 5599 5598 5597 5596 5594 5592 5589 5586 5583 5580 5576 5573
5513 5516 5521 5527 5530 5533 5538 5541 5546 5549 5552 5556 5559 5563 5567 5569 5572 5575 5577 5579 5582 5584 5585 5587 5588 5589 5590 5590 5590 5589 5589 5588 5587 5586 5585 5583 5581 5579 5576 5574 5570 5567 5564 5560
5506 5509 5513 5519 5522 5526 5531 5535 5538 5540 5543 5547 5550 5554 5557 5559 5562 5564 5566 5569 5571 5573 5574 5575 5576 5577 5578 5578 5577 5577 5576 5576 5575 5574 5572 5571 5569 5566 5564 5561 5558 5555 5552 5548
5499 5503 5509 5511 5514 5518 5522 5526 5529 5532 5535 5538 5541 5544 5547 5549 5551 5554 5556 5558 5560 5561 5563 5564 5565 5566 5566 5566 5565 5565 5564 5563 5563 5561 5560 5558 5556 5554 5551 5549 5546 5543 5540 5537
5494 5498 5501 5504 5507 5510 5514 5517 5520 5523 5526 5529 5531 5534 5537 5539 5541 5543 5545 5547 5549 5550 5551 5552 5553 5554 5554 5554 5553 5553 5552 5551 5550 5549 5547 5546 5544 5542 5540 5537 5534 5532 5529 5526
5487 5490 5493 5496 5499 5502 5505 5508 5511 5514 5517 5519 5522 5524 5527 5529 5531 5533 5535 5536 5538 5539 5540 5541 5541 5542 5542 5542 5541 5541 5540 5539 5538 5537 5535 5534 5532 5530 5528 5525 5523 5520 5518 5515
5480 5483 5486 5489 5492 5495 5498 5500 5503 5505 5508 5510 5512 5515 5517 5519 5520 5522 5524 5525 5527 5528 5529 5529 5530 5530 5530 5530 5530 5529 5528 5527 5526 5525 5523 5522 5520 5518 5516 5513 5511 5509 5507 5504
5474 5476 5479 5482 5484 5487 5490 5492 5495 5497 5499 5501 5503 5505 5507 5509 5510 5512 5513 5515 5516 5516 5517 5518 5518 5518 5518 5518 5517 5517 5516 5515 5514 5513 5512 5510 5508 5506 5503 5501 5499 5497 5495 5493
5468 5470 5472 5475 5477 5480 5482 5484 5486 5489 5491 5493 5495 5496 5498 5499 5501 5502 5503 5504 5505 5506 5506 5507 5507 5506 5506 5505 5505 5504 5504 5503 5503 5501 5500 5498 5497 5495 5493 5490 5487 5486 5484 5483
5462 5464 5466 5468 5470 5473 5475 5477 5479 5481 5482 5484 5486 5487 5489 5490 5491 5492 5493 5494 5495 5495 5495 5495 5495 5495 5494 5494 5493 5493 5492 5492 5491 5490 5488 5487 5485 5483 5481 5479 5478 5475 5474 5472
5455 5458 5460 5462 5463 5465 5467 5469 5471 5473 5474 5476 5477 5479 5480 5481 5482 5483 5483 5484 5484 5484 5484 5484 5484 5484 5483 5482 5481 5481 5480 5480 5479 5478 5476 5475 5473 5472 5470 5468 5467 5466 5464 5462
5450 5451 5453 5455 5457 5459 5460 5462 5464 5465 5467 5468 5469 5470 5470 5471 5472 5473 5473 5473 5474 5474 5474 5473 5473 5472 5471 5471 5470 5469 5468 5468 5467 5466 5465 5463 5462 5461 5459 5458 5457 5456 5455 5453
5444 5445 5447 5449 5450 5452 5453 5454 5456 5457 5458 5459 5460 5461 5461 5462 5463 5463 5463 5463 5463 5463 5463 5463 5462 5461 5460 5459 5458 5458 5457 5456 5455 5454 5453 5452 5451 5450 5449 5447 5446 5445 5445 5443
5438 5440 5441 5442 5444 5445 5446 5447 5448 5449 5450 5451 5451 5452 5452 5453 5453 5453 5453 5453 5453 5453 5453 5452 5452 5451 5450 5449 5448 5447 5446 5445 5444 5443 5443 5442 5441 5440 5439 5438 5437 5436 5435 5435
5433 5434 5435 5436 5437 5438 5439 5440 5441 5441 5442 5442 5443 5443 5443 5443 5444 5444 5444 5444 5444 5444 5443 5442 5442 5441 5440 5438 5437 5437 5436 5435 5434 5434 5433 5433 5432 5431 5430 5429 5428 5428 5427 5427
5428 5429 5430 5431 5432 5432 5433 5433 5434 5434 5434 5435 5435 5435 5435 5435 5435 5435 5435 5435 5435 5434 5434 5433 5432 5431 5430 5428 5427 5427 5426 5426 5425 5425 5424 5424 5423 5423 5422 5422 5421 5421 5421 5421
5423 5424 5424 5425 5426 5426 5426 5427 5427 5427 5427 5427 5427 5427 5427 5427 5427 5427 5427 5427 5426 5425 5425 5424 5422 5421 5420 5420 5419 5418 5418 5417 5417 5417 5416 5416 5416 5416 5416 5415 5415 5415 5415 5415
5418 5418 5419 5419 5419 5420 5420 5420 5420 5421 5421 5421 5421 5420 5420 5420 5420 5420 5420 5420 5419 5418 5417 5416 5415 5414 5412 5412 5411 5411 5410 5410 5410 5410 5410 5410 5410 5410 5410 5410 5410 5410 5411 5411
5412 5413 5413 5413 5414 5414 5414 5414 5415 5415 5415 5415 5415 5414 5414 5414 5414 5414 5413 5413 5412 5411 5410 5409 5408 5407 5405 5404 5404 5404 5404 5404 5404 5404 5404 5404 5404 5405 5405 5405 5406 5406 5407 5408
5408 5408 5408 5408 5408 5408 5409 5409 5410 5410 5410 5410 5409 5409 5409 5408 5408 5407 5407 5406 5406 5405 5404 5403 5402 5400 5399 5399 5398 5398 5398 5398 5398 5398 5398 5399 5399 5400 5400 5401 5402 5403 5404 5405
5403 5403 5403 5403 5403 5404 5404 5405 5405 5405 5405 5405 5404 5404 5403 5403 5403 5402 5401 5401 5400 5399 5398 5397 5396 5395 5394 5394 5394 5393 5393 5393 5393 5393 5394 5394 5395 5396 5397 5398 5399 5400 5402 5404
5398 5399 5399 5399 5399 5400 5400 5400 5400 5400 5400 5400 5399 5399 5398 5398 5397 5397 5396 5396 5395 5394 5394 5393 5392 5392 5391 5390 5390 5390 5390 5390 5390 5390 5390 5391 5392 5393 5394 5395 5396 5398 5400 5402
5395 5395 5395 5395 5395 5396 5396 5396 5396 5395 5395 5394 5394 5394 5393 5393 5393 5392 5392 5391 5391 5391 5390 5390 5389 5389 5388 5388 5387 5387 5387 5387 5387 5387 5388 5389 5390 5391 5392 5394 5395 5397 5399 5401